Location: Moscow
(38.8570°N, 84.2291°W)
Time: 17:34:09
(UTC+00:00)

DUCHIFAT 1 - Visible Passes

Search period start: 14 March 2026 00:00
Search period end: 24 March 2026 00:00
Orbit: 412 x 420 km, 98.1° (Epoch: 13 March)

Date Brightness Start Highest point End Pass type
(mag) Time Alt. Az. Time Alt. Az. Time Alt. Az.
14 Mar ? 00:48:16 11° NE 00:48:16 11° NE 00:48:28 10° NE visible
14 Mar ? 02:21:12 11° NW 02:21:12 11° NW 02:21:19 10° NW visible
15 Mar ? 01:35:10 19° N 01:35:10 19° N 01:36:15 10° N visible
16 Mar ? 00:49:02 11° NE 00:49:02 11° NE 00:49:23 10° NE visible
16 Mar ? 02:21:57 12° NW 02:21:57 12° NW 02:22:15 10° NW visible
17 Mar ? 01:35:42 21° N 01:35:42 21° N 01:36:57 10° N visible
18 Mar ? 00:49:21 11° NE 00:49:21 11° NE 00:49:51 10° NE visible
18 Mar ? 02:22:16 13° NW 02:22:16 13° NW 02:22:45 10° NW visible
19 Mar ? 01:35:48 23° N 01:35:48 23° N 01:37:13 10° N visible
20 Mar ? 00:49:15 12° NE 00:49:15 12° NE 00:49:49 10° NE visible
20 Mar ? 02:22:08 14° NW 02:22:08 14° NW 02:22:49 10° NW visible
21 Mar ? 01:35:29 25° N 01:35:29 25° N 01:37:02 10° N visible
22 Mar ? 00:48:42 11° NE 00:48:42 11° NE 00:49:18 10° NE visible
22 Mar ? 02:21:34 16° NW 02:21:34 16° NW 02:22:27 10° NW visible
23 Mar ? 01:34:41 28° NNE 01:34:41 28° NNE 01:36:25 10° N visible
